ABS-2A (MONGOLSAT-1)

Last updated on Sat Apr 13 2024 01:02:39 GMT+0100 (British Summer Time)

1 41588U 16038A 24103.03447632 -.00000092 00000+0 00000+0 0 9993 2 41588 0.0175 233.8427 0001838 88.7152 325.2845 1.00268804 28728
UTC large
Height (km)
Speed (km/s)
/
Latitude / Longitude
Inclination (degrees)
Orbital Period (minutes)
Azimuth
Elevation
Range (km)
Doppler Factor

Next 0 passes for location: London (51.5072 / 0.1276)

Sorry there are no passes over London.